FLOCK 2K-44 (42873 NORAD) Tracking and Keplerian Element Data

This shows tracking and keplerian element data for the satellite.

Feedback or suggestion? Click here.




ElementValue
Catalog42873
NameFLOCK 2K-44
Epoch Orbit3282
Epoch Day45.62974102
Epoch Year2018
RAAN308.4508
Inclination96.9928
Eccentricity0.0011895
Argument of Perigee173.8213
Mean Anonmoly186.318
Mean Motion15.35687409
Decay Rate7.223E-05
L11 42873U 17042BA 18045.62974102 .00007223 00000-0 20985-3 0 9998
L22 42873 96.9928 308.4508 0011895 173.8213 186.3180 15.35687409 32826

Live tracking and technical data element details for FLOCK 2K-44 (NORAD 42873). FLOCK 2K-44 can be tracked NOW for your location showing map with azimuth and elevation plus other details from your city location.

Track the satellite on the map from your city or location and see movement details for azimuth, elevation, latitude, longitude, range, height, and movement on the map or in text.







IsCatalogInMostPopularTable: catalog: 42873, numindb: 110
Update: records affected: 1



GetName: 42873 FLOCK 2K-44

Hit Count: updated at: Mon, 19 Nov 2018 14:13:40 GMT